Regional Weather Roundup
Issued by NWS

Home | Current Version | Previous Version | Graphics & Text | Print | Product List | Glossary On
Versions: 1 2 3 4 5 6 7 8 9 10 11 12 13 14 15 16 17 18 19 20 21 22 23 24 25 26 27 28 29 30 31 32 33 34 35 36 37 38 39 40 41 42 43 44 45 46 47 48 49 50
000
ASUS43 KDMX 252107
RWRIA

WEATHER ROUNDUP FOR IOWA
NATIONAL WEATHER SERVICE DES MOINES IA
400 PM CDT SAT APR 25 2015

NOTE: "FAIR" INDICATES FEW OR NO CLOUDS BELOW 12,000 FEET WITH NO
SIGNIFICANT WEATHER AND/OR OBSTRUCTIONS TO VISIBILITY.

* - THESE STATIONS ARE NOT NWS STATIONS...THUS NOT UNDER NWS
QUALITY CONTROL.  THEY ALSO DO NOT REPORT WEATHER SUCH
AS PRECIPITATION OR FOG.

IAZ001>003-012>014-020>022-031>034-043>046-252200-
   NORTHWEST IOWA

CITY           SKY/WX    TMP DP  RH WIND       PRES   REMARKS
CARROLL *      CLOUDY    52  46  82 NE18      29.74R
CHEROKEE *     CLOUDY    55  43  62 E14G22    29.77R
DENISON *      CLOUDY    52  48  87 NE14G22   29.73R
LE MARS *      PTSUNNY   59  43  55 E12G20    29.77S
ORANGE CITY *  SUNNY     55  41  58 E16       29.77S
SHELDON *      SUNNY     57  41  54 E18       29.77R
SIOUX CITY     CLOUDY    60  43  53 E14G22    29.74F
SPENCER        CLOUDY    57  43  59 NE18G25   29.78S
STORM LAKE *   CLOUDY    54  43  66 E18       29.77R
$$

IAZ055>058-069>071-079>083-090>094-252200-
   SOUTHWEST IOWA

CITY           SKY/WX    TMP DP  RH WIND       PRES   REMARKS
ATLANTIC *     CLOUDY    48  46  93 NE13G23   29.72R
AUDUBON *      MOSUNNY   48  45  87 NE15      29.74R
CLARINDA *     CLOUDY    48  46  93 NE18G26   29.69S
COUNCIL BLFS * CLOUDY    52  50  93 NE15G23   29.71R
CRESTON *      CLOUDY    46  46 100 NE18G25   29.69R
HARLAN  *      CLOUDY    50  50 100 NE12G23   29.76R
LAMONI         LGT RAIN  48  46  93 NE15      29.66R FOG
RED OAK *      CLOUDY    48  46  93 NE16G23   29.70R
SHENANDOAH *   CLOUDY    50  48  93 NE17G26   29.70R
$$

IAZ047>049-059>061-072>074-084-252200-
   CENTRAL IOWA

CITY           SKY/WX    TMP DP  RH WIND       PRES   REMARKS
AMES           CLOUDY    51  42  71 NE14      29.73R
ANKENY *       CLOUDY    50  46  87 NE15      29.72R
CHARITON *     PTSUNNY   46  46 100 NE15G24   29.68R
DES MOINES     CLOUDY    50  45  83 NE14      29.71R
GRINNELL*      CLOUDY    50  45  81 NE13      29.72R
KNOXVILLE *    CLOUDY    48  45  87 NE13G20   29.68R
MARSHALLTOWN   CLOUDY    51  42  71 NE17G24   29.72R
PELLA *        PTSUNNY   48  48 100 E9        29.71R
PERRY *        CLOUDY    50  45  81 NE16      29.73R
$$

IAZ004>006-015-016-023>025-035-036-252200-
   NORTH CENTRAL IOWA

CITY           SKY/WX    TMP DP  RH WIND       PRES   REMARKS
ALGONA *       CLOUDY    54  41  62 NE15G23   29.79R
CLARION *      CLOUDY    55  41  58 E18G28    29.77R
ESTHERVILLE    CLOUDY    53  42  66 E16G25    29.79R
FORT DODGE *   CLOUDY    55  41  58 E20G25    29.77R
MASON CITY     CLOUDY    54  41  61 E18       29.80R
FOREST CITY *  CLOUDY    52  41  66 NE12G20   29.79R
IOWA FALLS *   CLOUDY    52  41  66 NE15G21   29.77R
$$

IAZ007>011-017>019-026>030-037>042-050>054-066-252200-
   NORTHEAST IOWA

CITY           SKY/WX    TMP DP  RH WIND       PRES   REMARKS
CEDAR RAPIDS   CLOUDY    50  44  80 E16       29.71R
CHARLES CITY * CLOUDY    52  39  62 E18       29.79R
CLINTON *      PTSUNNY   48  43  81 E24       29.74R
DECORAH *      CLOUDY    52  37  58 NE12G17   29.79R
DUBUQUE        PTSUNNY   52  38  58 NE21G32   29.73R
MONTICELLO *   CLOUDY    50  43  76 NE16G26   29.74R
OELWEIN *      CLOUDY    52  39  62 NE18      29.76R
WATERLOO       CLOUDY    52  40  63 NE20      29.76R
$$

IAZ064-065-067-068-078-252200-
   EAST CENTRAL IOWA

CITY           SKY/WX    TMP DP  RH WIND       PRES   REMARKS
DAVENPORT      CLOUDY    49  41  74 E21G29    29.71R
IOWA CITY      CLOUDY    50  44  80 E14G22    29.72R
MT. PLEASANT * CLOUDY    46  46 100 NE18      29.67R
MUSCATINE *    CLOUDY    50  45  81 NE6       29.71R
QUAD CITIES    CLOUDY    49  43  80 E15G25    29.70R
$$

IAZ062-063-075>077-085>089-095>099-252200-
   SOUTHEAST IOWA

CITY           SKY/WX    TMP DP  RH WIND       PRES   REMARKS
BURLINGTON     CLOUDY    49  46  90 NE15G28   29.65R
FAIRFIELD *    CLOUDY    48  46  93 NE15G24   29.67R FOG
FORT MADISON * CLOUDY    48  46  93 NE12G23   29.66R
KEOKUK *       CLOUDY    50  46  87 NE14G21   29.63R
OSKALOOSA *    LGT RAIN  46  46 100 NE16G23   29.68R
CENTERVILLE *  CLOUDY    48  48 100 NE13G21   29.66R
OTTUMWA        CLOUDY    48  46  93 NE17      29.67R
WASHINGTON *   CLOUDY    48  48 100 NE14      29.69R
$$

ABBREVIATIONS USED IN REMARKS
   TC - TEMPERATURES IN CELSIUS
  WCI - WIND CHILL INDEX
   HX - HEAT INDEX
  VSB - VISIBILITY
$$




USA.gov is the U.S. government's official web portal to all federal, state and local government web resources and services.